Location: Bretagne
(43.8474°N, 0.4650°W)
Time: 20:22:41
(UTC+00:00)

USA 215 - Pass Details

Date: 15 January 2026
Orbit: 1098 x 1109 km, 123.0° (Epoch: 10 January)

Event Time Altitude Azimuth Distance (km) Brightness Sun altitude
Exits shadow 17:44:40 12° 65° (ENE) 2,835 4.7 -9.8°
Maximum altitude 17:50:14 36° 129° (SE) 1,660 4.0 -10.7°
Drops below altitude 10° 17:56:08 10° 194° (SSW) 2,946 6.0 -11.8°
Sets 17:58:50 0° 203° (SSW) 3,899 6.8 -12.2°
